This demonstration page uses our WeatherBlox Daily Observations layout. Learn more.

Left ArrowRight Arrow

Hourly Observations for April 29, 2016

Temp ( °F °C ) Dew Point ( °F °C ) Humidity (%) Winds ( mph kmh ) Pressure ( in mb ) Visibility ( mi km ) Precip ( " mm )
12:54 am 00:54 Cloudy 47 8.3 42 5.6 83 83 NNE 8 13 30.14 1021 10 16 0.00 0.00
1:54 am 01:54 Cloudy 46 7.8 41 5 83 83 N 7 11 30.14 1021 10 16 0.00 0.00
2:54 am 02:54 Cloudy 46 7.8 40 4.4 79 79 N 5 7 30.15 1021 10 16 0.00 0.00
3:54 am 03:54 Cloudy 46 7.8 40 4.4 79 79 NW 5 7 30.14 1021 10 16 0.00 0.00
4:54 am 04:54 Cloudy 46 7.8 41 5 83 83 N 6 9 30.13 1020 10 16 0.00 0.00
5:54 am 05:54 Cloudy 45 7.2 40 4.4 83 83 NNE 10 17 30.10 1019 10 16 0.00 0.00
6:54 am 06:54 Cloudy 45 7.2 40 4.4 83 83 NNE 12 19 30.10 1019 10 16 0.00 0.00
7:54 am 07:54 Cloudy 45 7.2 40 4.4 83 83 NNE 13 20 30.08 1019 10 16 0.00 0.00
8:54 am 08:54 Cloudy 47 8.3 38 3.3 71 71 NE 14 22 30.09 1019 10 16 0.00 0.00
9:54 am 09:54 Cloudy 47 8.3 38 3.3 71 71 ENE 14 22 30.11 1020 10 16 0.00 0.00
10:54 am 10:54 Cloudy 47 8.3 39 3.9 74 74 ENE 12 19 30.12 1020 10 16 0.00 0.00
11:54 am 11:54 Cloudy 48 8.9 39 3.9 71 71 NE 12 19 30.09 1019 9 14 0.00 0.00
12:54 pm 12:54 Cloudy 48 8.9 39 3.9 71 71 NE 10 17 30.08 1019 10 16 0.00 0.00
1:54 pm 13:54 Cloudy 48 8.9 40 4.4 74 74 ENE 14 22 30.06 1018 10 16 0.00 0.00
2:54 pm 14:54 Cloudy 48 8.9 40 4.4 74 74 ENE 13 20 30.06 1018 10 16 0.00 0.00
3:54 pm 15:54 Cloudy 48 8.9 40 4.4 74 74 ENE 12 19 30.05 1018 10 16 0.00 0.00
4:01 pm 16:01 Cloudy 48 8.9 40 4.4 74 74 ENE 14 22 30.09 1019 10 16 0.00 0.00
4:54 pm 16:54 Cloudy 48 8.9 41 5 77 77 ENE 12 19 30.03 1017 9 14 0.00 0.00
5:54 pm 17:54 Cloudy 48 8.9 41 5 77 77 ENE 17 28 29.96 1015 8 13 0.00 0.00
6:07 pm 18:07 Cloudy 48 8.9 42 5.6 80 80 ENE 13 20 30.00 1016 8 13 0.00 0.00
6:54 pm 18:54 Cloudy 48 8.9 43 6.1 83 83 NE 21 33 29.95 1014 7 11 0.00 0.00
7:54 pm 19:54 Cloudy 48 8.9 43 6.1 83 83 ENE 20 31 29.93 1014 7 11 0.00 0.00
8:54 pm 20:54 Cloudy 48 8.9 43 6.1 83 83 ENE 18 30 29.92 1013 9 14 0.00 0.00
9:54 pm 21:54 Cloudy 48 8.9 42 5.6 80 80 ENE 21 33 29.91 1013 10 16 0.00 0.00
10:28 pm 22:28 Cloudy 48 9 43 6 82 82 ENE 16 26 29.94 1014 10 16 0.00 0.00
10:54 pm 22:54 Cloudy 48 8.9 42 5.6 80 80 ENE 22 35 29.90 1013 10 16 0.00 0.00
11:54 pm 23:54 Cloudy with Light Rain 47 8.3 42 5.6 83 83 ENE 17 28 29.89 1012 7 11 0.00 0.03

Powered by AerisWeather